Showing default

CTC-0, 62401

Orbit data source: Space-Track

CTC-0, 62401 is an American payload satellite in LEO that was launched on Sat, 21 Dec 2024 UTC via an FALCON 9 launch vehicle from the Air Force Western Test Range (AFWTR). Payload-class satellites include a variety of spacecraft equipped with specific instruments for various scientific and technological missions. These include communications satellites like Starlink; space stations such as the ISS; scientific satellites like the Hubble; Earth observation satellites from companies like Planet Labs, Umbra, and HawkEye 360; GPS; miniature CubeSats for education and research; and military/defense satellites.

Loading next visibility...
Identifier
62401, 2024-247AA
Orbit
LEO
Country
Flag of USUS
Related business
None
Manufacturer
Endurosat
Mission
Operational Commercial Communications
Bus & Motor
CUBESAT 8U, Unknown motor
Mass
9.75 kg wet, 9.75 kg dry
Launch date (UTC)
2024-12-21 (1 year ago)
Launch vehicle
FALCON 9
Launch site
Air Force Western Test Range (AFWTR)
Object type
Payload
Rocket body
Debris
Shape & HBR
Box, 0.3 m
Radar Cross Section
0.154 m², Small (<0.1 m²)

Expand to show TLE details & history
Last TLE update: 2 days ago

TLE from 2 days ago
0 CTC-0
1 62401U 24247AA  25348.04343161  .00018013  00000-0  57861-3 0  9999
2 62401  44.9728 214.2621 0005691 223.6050 136.4386 15.32077156 54755
Epoch: 2025-12-14T01:02Z
TLE epoch observation values (Epoch: 2025-12-14T01:02:32.491Z)
Latitude
0.00007°
Longitude
115.66477°
Altitude
472.436 km
Speed
7.63 km/s
True Right ascension
14h 17m 02s
True Declination
0° 00' 00"
Sunlit
Object was in daylight at epoch
Visualization orbit readout
Latitude
Unknown
Longitude
Unknown
Altitude
Unknown
Speed
Unknown
Apparent Right ascension
Unknown
Apparent Declination
Unknown
Sunlit
N/A
Visualization observer readout
Local Sidereal Time
17:08:46
Azimuth
Unknown
Elevation
Unknown
Doppler factor
Unknown
Orbital elements
Apogee altitude
475.131 km
Perigee altitude
467.335 km
Semi-major axis
6,849.37 km
Eccentricity
0.00057
Inclination
44.9728°
RAAN
214.2621°
Arg. of periapsis
223.605°
True anomaly
136.48352°
Mean anomaly
136.4386°
Eccentric anomaly
136.46106°
Mean motion
3.82884 °/min
Orbital period
94.02 mins
BSTAR
0.00057861
Loading maneuver chart data...
Computing Atmospheric mass density...
Loading historical data...
Loading historical data...
Loading historical data...
Loading historical data...
Loading historical data...
Loading historical data...
Loading historical data...

Documentation

Showing up to 5 results
|